[[{"header":{"parameterUnit":"m.s-1","parameterCategory":1,"la1":30.2992,"la2":30.254,"lo1":-89.0895,"lo2":-89.0443,"dy":0.0025,"dx":0.0025,"nx":19,"ny":19,"refTime":"2026-03-13T09:00:00:Z","depth":0,"parameterNumber":2,"parameterNumberName":"U-component_of_WINDS"},"data":[0,0,0,-3.468,-3.4683,-3.4853,-3.4853,-3.507,-3.5071,0,0,0,0,0,0,0,0,0,0,0,-3.4627,-3.4628,-3.4679,-3.4684,-3.4853,-3.4853,-3.5069,-3.5071,0,0,0,0,0,0,0,0,0,0,0,-3.4626,-3.4628,-3.4629,-3.4684,-3.4853,-3.4854,-3.5069,-3.4942,0,0,0,0,0,0,0,0,0,0,-3.4778,-3.4725,-3.4627,-3.4629,-3.4685,-3.4852,-3.4854,-3.4936,-3.495,-3.4992,0,-3.5026,0,-3.5052,-3.5086,-3.5086,0,0,0,-3.4686,-3.4713,-3.4761,-3.463,-3.4687,-3.4852,-3.4777,-3.4943,-3.4959,-3.501,-3.5029,-3.5038,-3.5056,-3.5087,-3.5088,-3.5317,-3.5318,0,0,-3.4677,-3.4656,-3.475,-3.4772,-3.4743,-3.4772,-3.4782,-3.4953,-3.4973,-3.503,-3.5043,-3.5059,-3.5088,-3.509,-3.5317,-3.5318,0,0,0,-3.4648,-3.4649,-3.4693,-3.4763,-3.4793,-3.4776,-3.4789,-3.4966,-3.4982,-3.5045,-3.5062,-3.509,-3.5092,-3.5316,-3.5317,-3.5342,0,0,0,-3.4643,-3.4633,-3.4689,-3.4678,-3.479,-3.4881,-3.4797,-3.497,-3.499,-3.5061,-3.509,-3.5094,-3.5314,-3.5316,-3.5339,-3.5356,0,0,0,-3.4617,-3.463,-3.4653,-3.4677,-3.4748,-3.4879,-3.4905,-3.4975,-3.5,-3.5087,-3.5095,-3.5314,-3.5316,-3.5336,-3.5352,-3.541,0,0,0,-3.4583,-3.4673,-3.4653,-3.4761,-3.4747,-3.4892,-3.4904,-3.5014,-3.5091,-3.5091,-3.5315,-3.5317,-3.5335,-3.535,-3.5407,-3.5453,-3.5471,0,0,-3.4685,-3.4685,-3.475,-3.4737,-3.488,-3.4868,-3.5017,-3.5108,-3.5137,-3.5256,-3.5262,-3.534,-3.5352,-3.5409,-3.558,-3.5594,0,0,0,-3.4775,-3.4821,-3.4864,-3.4936,-3.5007,-3.507,-3.5141,-3.5176,-3.5278,-3.5193,-3.5378,-3.5386,-3.542,-3.5443,-3.5455,-3.5486,-3.5327,-3.5327,-3.5326,-3.4888,-3.4919,-3.5029,-3.5081,-3.5151,-3.5224,-3.5284,-3.5344,-3.5355,-3.5399,-3.5433,-3.5533,-3.5559,-3.5568,-3.56,-3.5462,-3.5462,-3.5462,-3.5462,-3.5039,-3.5109,-3.5123,-3.5235,-3.5268,-3.5364,-3.5439,-3.5445,-3.5539,-3.5509,-3.5541,-3.5503,-3.5582,-3.5612,-3.5465,-3.5464,-3.5464,-3.5464,-3.5463,-3.5114,-3.5153,-3.5194,-3.5301,-3.5382,-3.5434,-3.5524,-3.5552,-3.558,-3.5612,-3.5652,-3.5651,-3.5654,-3.5629,-3.563,-3.563,-3.563,-3.563,-3.5631,-3.5176,-3.5221,-3.5292,-3.5377,-3.5427,-3.5498,-3.5574,-3.5626,-3.5691,-3.5704,-3.5705,-3.5712,-3.5584,-3.555,-3.5636,-3.5635,-3.5634,-3.5634,-3.5634,-3.5314,-3.5288,-3.5397,-3.5448,-3.5551,-3.563,-3.5666,-3.5769,-3.5817,-3.5861,-3.5863,-3.5764,-3.5766,-3.5757,-3.5729,-3.5856,-3.5856,-3.5856,-3.5856,-3.5376,-3.5381,-3.55,-3.5579,-3.5661,-3.5705,-3.5831,-3.5893,-3.5953,-3.5985,-3.5972,-3.5938,-3.5928,-3.5936,-3.5923,-3.5897,-3.6065,-3.6065,-3.6065,-3.5463,-3.5476,-3.5576,-3.5633,-3.5717,-3.5789,-3.5908,-3.6001,-3.6065,-3.6074,-3.6011,-3.6002,-3.5948,-3.5929,-3.5933,-3.5912,-3.5866,0,0]},{"header":{"parameterUnit":"m.s-1","parameterCategory":1,"la1":30.2992,"la2":30.254,"lo1":-89.0895,"lo2":-89.0443,"dy":0.0025,"dx":0.0025,"nx":19,"ny":19,"refTime":"2026-03-13T09:00:00:Z","depth":0,"parameterNumber":3,"parameterNumberName":"V-component_of_WINDS"},"data":[0,0,0,0.4987,0.4988,0.5038,0.5038,0.5078,0.5078,0,0,0,0,0,0,0,0,0,0,0,0.4957,0.4957,0.4987,0.4988,0.5038,0.5039,0.5078,0.5078,0,0,0,0,0,0,0,0,0,0,0,0.4957,0.4957,0.4956,0.4988,0.5038,0.5039,0.5078,0.5049,0,0,0,0,0,0,0,0,0,0,0.5004,0.4961,0.4957,0.4956,0.4988,0.5038,0.5039,0.5048,0.5051,0.5045,0,0.5035,0,0.5057,0.5079,0.5079,0,0,0,0.4999,0.4959,0.4986,0.4956,0.4988,0.5038,0.5019,0.505,0.5053,0.5048,0.5036,0.5038,0.5058,0.508,0.508,0.5007,0.5006,0,0,0.4996,0.4957,0.4984,0.4988,0.4978,0.5017,0.502,0.5052,0.5036,0.5036,0.5039,0.5059,0.508,0.508,0.5008,0.5007,0,0,0,0.4981,0.4955,0.4982,0.4985,0.4996,0.5018,0.5022,0.5035,0.5047,0.504,0.5059,0.508,0.508,0.5009,0.5008,0.4925,0,0,0,0.498,0.4946,0.4981,0.4957,0.4995,0.5016,0.5003,0.5045,0.5049,0.5059,0.508,0.508,0.501,0.5008,0.493,0.4892,0,0,0,0.4959,0.4944,0.4946,0.4955,0.4975,0.5016,0.5031,0.5047,0.506,0.508,0.508,0.5011,0.5009,0.4934,0.4899,0.4861,0,0,0,0.4925,0.4872,0.4944,0.4892,0.4975,0.4966,0.5031,0.5027,0.5033,0.508,0.501,0.5008,0.4935,0.4903,0.4865,0.482,0.4799,0,0,0.4836,0.486,0.4833,0.4899,0.4867,0.4961,0.4918,0.4961,0.4999,0.5002,0.5001,0.4928,0.4899,0.4862,0.4695,0.4677,0,0,0,0.4791,0.4771,0.4771,0.4776,0.4808,0.4833,0.4887,0.4904,0.4909,0.4993,0.4907,0.4891,0.487,0.4851,0.4836,0.482,0.4998,0.4998,0.4998,0.4606,0.4659,0.4617,0.4676,0.468,0.4738,0.4746,0.4778,0.4829,0.4808,0.4808,0.4701,0.4676,0.4665,0.4649,0.4791,0.4791,0.4791,0.479,0.4479,0.4458,0.453,0.4514,0.457,0.4559,0.4613,0.465,0.4647,0.4704,0.4689,0.4745,0.4645,0.4633,0.4785,0.4786,0.4787,0.4787,0.4787,0.4362,0.4361,0.4383,0.4397,0.4402,0.4464,0.4459,0.4511,0.4559,0.4544,0.455,0.4551,0.4558,0.4544,0.4544,0.4543,0.4543,0.4543,0.4542,0.423,0.4258,0.4247,0.4278,0.4289,0.431,0.437,0.4382,0.4409,0.4447,0.4448,0.45,0.4626,0.4655,0.4537,0.4538,0.4539,0.4539,0.4539,0.4077,0.4121,0.4102,0.4113,0.4156,0.4158,0.4226,0.4247,0.4265,0.426,0.4318,0.4403,0.4431,0.4443,0.4467,0.4308,0.4308,0.4308,0.4307,0.3976,0.3996,0.399,0.4004,0.4025,0.4085,0.4064,0.4111,0.4166,0.4181,0.4213,0.4251,0.4261,0.4282,0.4298,0.4321,0.4128,0.4128,0.4128,0.3884,0.3909,0.3879,0.3935,0.3973,0.4005,0.3987,0.4001,0.4073,0.4122,0.4194,0.4201,0.4263,0.4281,0.4326,0.435,0.4394,0,0]}]]